Regional Weather Roundup
Issued by NWS Newport/Morehead, NC

Current Version | Previous Version | Graphics & Text | Print | Product List | Glossary Off
Versions: 1 2 3 4 5 6 7 8 9 10 11 12 13 14 15 16 17 18 19 20 21 22 23 24 25 26 27 28 29 30 31 32 33 34 35 36 37 38 39 40 41 42 43 44 45 46 47 48 49 50

966
ASUS42 KMHX 041025
RWRMHX
WEATHER ROUNDUP FOR EASTERN NORTH CAROLINA
NATIONAL WEATHER SERVICE NEWPORT/MOREHEAD CITY NC
600 AM EDT WED MAY 04 2016

NOTE: "FAIR" INDICATES FEW OR NO CLOUDS BELOW 12,000 FEET
WITH NO SIGNIFICANT WEATHER AND/OR OBSTRUCTIONS TO VISIBILITY

NCZ015>017-031-032-045>047-102-103-041100-
NORTH COAST

CITY           SKY/WX    TMP DP  RH WIND       PRES   REMARKS
EDENTON        CLOUDY    65  65 100 CALM      29.67S
ELIZABETH CITY CLOUDY    63  62  97 E6        29.67S
KITTY HAWK     MOSUNNY   63  62  97 CALM      29.65F
MANTEO         NOT AVBL

$$

NCZ045>047-081-094-103-104-041100-
CENTRAL COAST

CITY           SKY/WX    TMP DP  RH WIND       PRES   REMARKS
FRISCO         CLOUDY    65  64  97 CALM      29.64F
SWANQUARTER    NOT AVBL

$$

NCZ095-097-098-100-101-041100-
SOUTHERN COAST

CITY           SKY/WX    TMP DP  RH WIND       PRES   REMARKS
BEAUFORT       CLOUDY    68  67  96 SW6       29.68R
CEDAR ISLAND   NOT AVBL
JACKSONVILLE   CLOUDY    68  66  93 SW6       29.67S
PINEY ISLAND   NOT AVBL
WILMINGTON     HVY RAIN  66  63  90 W13       29.69S FOG


$$

NCZ011>013-027>030-043-044-078>080-089-090>093-098-041100-
COASTAL PLAIN

CITY           SKY/WX    TMP DP  RH WIND       PRES   REMARKS
AHOSKIE        CLOUDY    59  58  97 CALM      29.69S
CLINTON        CLOUDY    64  63  96 CALM      29.70S
ELIZABETHTOWN  CLOUDY    66  66  99 CALM      29.69S
GOLDSBORO      CLOUDY    62  62 100 W5        29.66S
GREENVILLE     CLOUDY    63  63 100 CALM      29.70F FOG
HAVELOCK       PTCLDY    64  63  96 S6        29.69R
KENANSVILLE    CLOUDY    64  62  93 CALM      29.69S
KINSTON        PTCLDY    62  62  97 W3        29.68S
NEW BERN       CLOUDY    63  61  93 SE3       29.68R
RICHLANDS      LGT RAIN  67  66  97 CALM      29.67F FOG
ROCKY MOUNT    CLOUDY    61  61 100 NW7       29.68R FOG
WASHINGTON     CLEAR     61  60  97 CALM      29.65F
WHITEVILLE     NOT AVBL

$$

AMZ130-135-150-152-154-156-158-170-250-252-270-ANZ085-086-088-633-658-670-041100-
MARINE OBSERVATIONS

STATION/POSITION TIME  TEMP    WIND        PRES    WAVE   SWELL
                       AIR SEA DIR/SP/G            HT/PER HT/PER
                 (UTC) (F)     (DEG/KT/KT) (MB)    (FT/S) (FT/S)
CHESAPEAKE LIGHT 1000   53      50/ 20/ 21 1006.1
64 E VA BEACH    0950   55 54  280/  2/  4 1004.7    4/ 6   3/ 6
DUCK             NOT AVBL
2 E DUCK         0911      59                N/A     2/ 8
OREGON INLET     1000   67 71  300/  5/  6 1003.6
13E OREGON INLT  1000      61                N/A     4/ 7   5/ 7
HATTERAS CG      1000   67 69  240/  4/  6 1003.5
DIAMOND BUOY     0950   70 72  250/  4/  6 1003.8    3/ 6   3/ 6
CAPE LOOKOUT     1000   69     230/ 10/ 12 1004.8
BEAUFORT LAB     1000   68 67  220/  3/  5 1004.2
30 SE NEW RVR IN 0925      72                N/A     5/ 7
27 SE WRIGHTSVLE 1008   73 72  240/ 16/ 19   N/A
5 SE WRIGHTSVLE  0908   70 69  250/ 16/ 19 1005.8
225 S CAPE HAT   0950   73 74  220/ 14/ 16 1009.1    6/ 7   3/ 7
41 SE CHARLESTON 0950   74 75  210/ 12/ 14 1005.7    3/ 7   2/ 7

$$




USA.gov is the U.S. government's official web portal to all federal, state and local government web resources and services.